Time,TemperatureF,DewpointF,PressureIn,WindDirection,WindDirectionDegrees,WindSpeedMPH,WindSpeedGustMPH,Humidity,HourlyPrecipIn,Conditions,Clouds,dailyrainin,SoftwareType,DateUTC
2013-07-11 08:09:00,77.4,74.9,29.96,West,275,0.0,4.0,92,0.00,,,0.00,Wunderground v.1.15,2013-07-11 13:09:00,
2013-07-11 08:13:00,78.6,74.1,29.96,West,275,0.0,4.0,86,0.00,,,0.00,Wunderground v.1.15,2013-07-11 13:13:00,
2013-07-11 08:14:00,78.7,74.2,29.96,West,275,0.0,0.0,86,0.00,,,0.00,Wunderground v.1.15,2013-07-11 13:14:00,
2013-07-11 08:21:00,79.7,74.4,29.96,SW,227,0.0,2.0,84,0.00,,,0.00,Wunderground v.1.15,2013-07-11 13:21:00,
2013-07-11 08:28:00,79.9,74.6,29.96,SW,226,0.0,1.0,84,0.00,,,0.00,Wunderground v.1.15,2013-07-11 13:28:00,
2013-07-11 08:34:00,80.5,75.2,29.96,SSE,159,0.0,0.0,84,0.00,,,0.00,Wunderground v.1.15,2013-07-11 13:34:00,
2013-07-11 08:39:00,81.4,75.7,29.96,SSE,159,0.0,2.0,83,0.00,,,0.00,Wunderground v.1.15,2013-07-11 13:39:00,
2013-07-11 08:45:00,82.2,75.8,29.96,SE,144,0.0,0.0,81,0.00,,,0.00,Wunderground v.1.15,2013-07-11 13:45:00,
2013-07-11 08:50:00,82.9,76.1,29.96,NE,52,0.0,3.0,80,0.00,,,0.00,Wunderground v.1.15,2013-07-11 13:50:00,
2013-07-11 08:55:00,83.2,75.6,29.96,NE,55,0.0,1.0,78,0.00,,,0.00,Wunderground v.1.15,2013-07-11 13:55:00,
2013-07-11 09:05:00,83.5,75.9,29.96,NE,56,0.0,0.0,78,0.00,,,0.00,Wunderground v.1.15,2013-07-11 14:05:00,
2013-07-11 09:10:00,84.1,76.1,29.96,ENE,63,1.0,2.0,77,0.00,,,0.00,Wunderground v.1.15,2013-07-11 14:10:00,
2013-07-11 09:15:00,84.2,77.4,29.96,NE,36,1.0,1.0,80,0.00,,,0.00,Wunderground v.1.15,2013-07-11 14:15:00,
2013-07-11 09:21:00,84.4,76.4,29.96,NE,45,2.0,2.0,77,0.00,,,0.00,Wunderground v.1.15,2013-07-11 14:21:00,
2013-07-11 09:26:00,84.4,76.0,29.96,East,88,2.0,2.0,76,0.00,,,0.00,Wunderground v.1.15,2013-07-11 14:26:00,
2013-07-11 09:32:00,84.5,76.9,29.96,ENE,59,1.0,2.0,78,0.00,,,0.00,Wunderground v.1.15,2013-07-11 14:32:00,
2013-07-11 09:39:00,84.8,76.4,29.95,NE,56,1.0,2.0,76,0.00,,,0.00,Wunderground v.1.15,2013-07-11 14:39:00,
2013-07-11 09:45:00,84.1,76.1,29.96,ENE,69,1.0,1.0,77,0.00,,,0.00,Wunderground v.1.15,2013-07-11 14:45:00,
2013-07-11 09:51:00,83.5,75.5,29.96,ENE,69,0.0,1.0,77,0.00,,,0.00,Wunderground v.1.15,2013-07-11 14:51:00,
2013-07-11 09:57:00,83.2,75.6,29.96,ENE,69,0.0,0.0,78,0.00,,,0.00,Wunderground v.1.15,2013-07-11 14:57:00,
2013-07-11 10:05:00,83.1,75.5,29.96,SW,231,1.0,1.0,78,0.00,,,0.00,Wunderground v.1.15,2013-07-11 15:05:00,
2013-07-11 10:30:00,85.2,76.0,29.96,WSW,246,1.0,1.0,74,0.00,,,0.00,Wunderground v.1.15,2013-07-11 15:30:00,
2013-07-11 10:37:00,84.7,76.3,29.96,ENE,72,1.0,4.0,76,0.00,,,0.00,Wunderground v.1.15,2013-07-11 15:37:00,
2013-07-11 10:42:00,83.8,76.6,29.96,ENE,66,1.0,1.0,79,0.00,,,0.00,Wunderground v.1.15,2013-07-11 15:42:00,
2013-07-11 10:49:00,83.1,76.3,29.96,SE,131,0.0,1.0,80,0.00,,,0.00,Wunderground v.1.15,2013-07-11 15:49:00,
2013-07-11 10:54:00,83.6,77.5,29.96,NE,46,0.0,3.0,82,0.00,,,0.00,Wunderground v.1.15,2013-07-11 15:54:00,
2013-07-11 11:04:00,84.6,77.0,29.96,ENE,75,1.0,1.0,78,0.00,,,0.00,Wunderground v.1.15,2013-07-11 16:04:00,
2013-07-11 11:10:00,85.2,76.4,29.96,ENE,70,1.0,2.0,75,0.00,,,0.00,Wunderground v.1.15,2013-07-11 16:10:00,
2013-07-11 11:15:00,85.0,76.6,29.96,East,96,1.0,1.0,76,0.00,,,0.00,Wunderground v.1.15,2013-07-11 16:15:00,
2013-07-11 11:20:00,85.2,76.8,29.96,East,85,1.0,2.0,76,0.00,,,0.00,Wunderground v.1.15,2013-07-11 16:20:00,
2013-07-11 11:25:00,85.9,76.6,29.96,NE,55,1.0,3.0,74,0.00,,,0.00,Wunderground v.1.15,2013-07-11 16:25:00,
2013-07-11 11:47:00,87.4,75.5,29.96,NE,38,2.0,2.0,68,0.00,,,0.00,Wunderground v.1.15,2013-07-11 16:47:00,
2013-07-11 11:53:00,87.5,76.1,29.95,NE,44,2.0,4.0,69,0.00,,,0.00,Wunderground v.1.15,2013-07-11 16:53:00,
2013-07-11 11:59:00,87.5,76.5,29.96,East,82,2.0,3.0,70,0.00,,,0.00,Wunderground v.1.15,2013-07-11 16:59:00,
2013-07-11 12:05:00,87.6,78.3,29.96,East,101,2.0,2.0,74,0.00,,,0.00,Wunderground v.1.15,2013-07-11 17:05:00,
2013-07-11 12:10:00,87.9,76.5,29.95,NE,46,2.0,2.0,69,0.00,,,0.00,Wunderground v.1.15,2013-07-11 17:10:00,
2013-07-11 12:15:00,87.2,76.2,29.95,ENE,69,1.0,1.0,70,0.00,,,0.00,Wunderground v.1.15,2013-07-11 17:15:00,
2013-07-11 12:20:00,87.2,77.1,29.95,NE,46,1.0,5.0,72,0.00,,,0.00,Wunderground v.1.15,2013-07-11 17:20:00,
2013-07-11 12:26:00,86.8,75.4,29.96,NE,44,2.0,7.0,69,0.00,,,0.00,Wunderground v.1.15,2013-07-11 17:26:00,
2013-07-11 12:32:00,86.5,76.0,29.95,NE,42,2.0,7.0,71,0.00,,,0.00,Wunderground v.1.15,2013-07-11 17:32:00,
2013-07-11 12:37:00,86.6,75.6,29.96,ENE,63,2.0,2.0,70,0.00,,,0.00,Wunderground v.1.15,2013-07-11 17:37:00,
2013-07-11 12:43:00,85.7,75.2,29.96,NE,51,1.0,2.0,71,0.00,,,0.00,Wunderground v.1.15,2013-07-11 17:43:00,
2013-07-11 12:49:00,85.6,76.4,29.95,East,100,1.0,2.0,74,0.00,,,0.00,Wunderground v.1.15,2013-07-11 17:49:00,
2013-07-11 12:55:00,86.1,76.4,29.95,NE,43,2.0,2.0,73,0.00,,,0.00,Wunderground v.1.15,2013-07-11 17:55:00,
2013-07-11 13:05:00,86.3,74.9,29.95,NNE,29,3.0,3.0,69,0.00,,,0.00,Wunderground v.1.15,2013-07-11 18:05:00,
2013-07-11 13:10:00,86.3,74.9,29.95,NNE,30,2.0,3.0,69,0.00,,,0.00,Wunderground v.1.15,2013-07-11 18:10:00,
2013-07-11 13:15:00,86.5,76.0,29.95,ENE,77,2.0,2.0,71,0.00,,,0.00,Wunderground v.1.15,2013-07-11 18:15:00,
2013-07-11 13:21:00,86.7,74.9,29.95,NE,50,2.0,3.0,68,0.00,,,0.00,Wunderground v.1.15,2013-07-11 18:21:00,
2013-07-11 13:26:00,86.5,75.1,29.95,NNE,24,3.0,3.0,69,0.00,,,0.00,Wunderground v.1.15,2013-07-11 18:26:00,
2013-07-11 13:32:00,86.1,74.7,29.95,NE,34,2.0,3.0,69,0.00,,,0.00,Wunderground v.1.15,2013-07-11 18:32:00,
2013-07-11 13:37:00,86.1,75.6,29.95,SSE,162,2.0,2.0,71,0.00,,,0.00,Wunderground v.1.15,2013-07-11 18:37:00,
2013-07-11 13:43:00,86.4,75.5,29.95,NE,53,1.0,4.0,70,0.00,,,0.00,Wunderground v.1.15,2013-07-11 18:43:00,
2013-07-11 13:49:00,85.7,73.5,29.95,North,9,3.0,5.0,67,0.00,,,0.00,Wunderground v.1.15,2013-07-11 18:49:00,
2013-07-11 13:55:00,85.7,75.2,29.95,NE,54,3.0,3.0,71,0.00,,,0.00,Wunderground v.1.15,2013-07-11 18:55:00,
2013-07-11 14:04:00,85.8,73.6,29.95,NNE,26,3.0,6.0,67,0.00,,,0.00,Wunderground v.1.15,2013-07-11 19:04:00,
2013-07-11 14:10:00,86.2,75.7,29.95,NNE,26,3.0,6.0,71,0.00,,,0.00,Wunderground v.1.15,2013-07-11 19:10:00,
2013-07-11 14:15:00,85.9,73.7,29.94,NE,52,2.0,3.0,67,0.00,,,0.00,Wunderground v.1.15,2013-07-11 19:15:00,
2013-07-11 14:21:00,86.2,73.0,29.94,NE,51,2.0,3.0,65,0.00,,,0.00,Wunderground v.1.15,2013-07-11 19:21:00,
2013-07-11 14:27:00,86.9,73.7,29.94,ENE,67,1.0,2.0,65,0.00,,,0.00,Wunderground v.1.15,2013-07-11 19:27:00,
2013-07-11 14:32:00,87.4,72.8,29.94,ENE,61,1.0,2.0,62,0.00,,,0.00,Wunderground v.1.15,2013-07-11 19:32:00,
2013-07-11 14:37:00,87.8,74.6,29.94,East,86,1.0,3.0,65,0.00,,,0.00,Wunderground v.1.15,2013-07-11 19:37:00,
2013-07-11 14:43:00,88.4,76.0,29.94,East,84,1.0,3.0,67,0.00,,,0.00,Wunderground v.1.15,2013-07-11 19:43:00,
2013-07-11 14:49:00,88.5,74.8,29.94,NE,39,1.0,3.0,64,0.00,,,0.00,Wunderground v.1.15,2013-07-11 19:49:00,
2013-07-11 14:54:00,88.6,73.9,29.94,East,89,1.0,1.0,62,0.00,,,0.00,Wunderground v.1.15,2013-07-11 19:54:00,
2013-07-11 14:59:00,88.4,73.7,29.94,NE,53,2.0,3.0,62,0.00,,,0.00,Wunderground v.1.15,2013-07-11 19:59:00,
2013-07-11 15:04:00,88.3,73.1,29.94,NE,56,2.0,2.0,61,0.00,,,0.00,Wunderground v.1.15,2013-07-11 20:04:00,
2013-07-11 15:12:00,88.1,73.4,29.94,East,92,2.0,2.0,62,0.00,,,0.00,Wunderground v.1.15,2013-07-11 20:12:00,
2013-07-11 15:18:00,88.3,72.2,29.95,NE,34,1.0,3.0,59,0.00,,,0.00,Wunderground v.1.15,2013-07-11 20:18:00,
2013-07-11 15:25:00,87.4,71.3,29.94,NNE,13,3.0,6.0,59,0.00,,,0.00,Wunderground v.1.15,2013-07-11 20:25:00,
2013-07-11 15:31:00,86.7,71.2,29.95,NE,50,4.0,6.0,60,0.00,,,0.00,Wunderground v.1.15,2013-07-11 20:31:00,
2013-07-11 15:36:00,86.5,71.5,29.95,NNE,32,3.0,7.0,61,0.00,,,0.00,Wunderground v.1.15,2013-07-11 20:36:00,
2013-07-11 15:41:00,86.3,71.7,29.95,NE,47,3.0,7.0,62,0.00,,,0.00,Wunderground v.1.15,2013-07-11 20:41:00,
2013-07-11 15:48:00,86.9,73.7,29.95,NE,50,2.0,3.0,65,0.00,,,0.00,Wunderground v.1.15,2013-07-11 20:48:00,
2013-07-11 15:54:00,87.2,72.6,29.95,SE,142,1.0,1.0,62,0.00,,,0.00,Wunderground v.1.15,2013-07-11 20:54:00,
2013-07-11 16:59:00,85.5,69.5,29.95,NE,38,1.0,4.0,59,0.00,,,0.00,Wunderground v.1.15,2013-07-11 21:59:00,
2013-07-11 17:05:00,85.2,68.8,29.95,NE,45,1.0,6.0,58,0.00,,,0.00,Wunderground v.1.15,2013-07-11 22:05:00,
2013-07-11 17:11:00,84.6,68.7,29.95,North,9,2.0,8.0,59,0.00,,,0.00,Wunderground v.1.15,2013-07-11 22:11:00,
2013-07-11 17:16:00,84.3,67.9,29.95,NNE,16,3.0,8.0,58,0.00,,,0.00,Wunderground v.1.15,2013-07-11 22:16:00,
2013-07-11 17:22:00,83.8,68.4,29.95,NE,34,4.0,4.0,60,0.00,,,0.00,Wunderground v.1.15,2013-07-11 22:22:00,
2013-07-11 17:28:00,84.1,69.7,29.95,NNE,30,2.0,4.0,62,0.00,,,0.00,Wunderground v.1.15,2013-07-11 22:28:00,
2013-07-11 17:33:00,84.4,69.0,29.95,SSE,147,1.0,1.0,60,0.00,,,0.00,Wunderground v.1.15,2013-07-11 22:33:00,
2013-07-11 17:39:00,84.5,69.6,29.95,SE,130,1.0,2.0,61,0.00,,,0.00,Wunderground v.1.15,2013-07-11 22:39:00,
2013-07-11 17:45:00,84.2,69.8,29.95,NNE,13,1.0,2.0,62,0.00,,,0.00,Wunderground v.1.15,2013-07-11 22:45:00,
2013-07-11 17:51:00,83.9,67.5,29.94,SSE,152,1.0,3.0,58,0.00,,,0.00,Wunderground v.1.15,2013-07-11 22:51:00,
2013-07-11 17:57:00,83.7,66.3,29.94,NE,34,1.0,3.0,56,0.00,,,0.00,Wunderground v.1.15,2013-07-11 22:57:00,
2013-07-11 18:03:00,83.6,66.8,29.94,NNE,21,1.0,2.0,57,0.00,,,0.00,Wunderground v.1.15,2013-07-11 23:03:00,